Weather History for Defiance, OH

Change the Weather History Date:

Monday, January 14, 2013

  Actual Average Record
Temperature  
Mean Temperature 26 °F -  
Max Temperature 30 °F 29 °F 55 °F (1960)
Min Temperature 19 °F 14 °F -12 °F (1977)
Degree Days  
Heating Degree Days 40    
Moisture  
Dew Point 18 °F    
Average Humidity 76    
Maximum Humidity 86    
Minimum Humidity 66    
Precipitation  
Precipitation 0.00 in - - ()
Sea Level Pressure  
Sea Level Pressure 30.36 in    
Wind  
Wind Speed 5 mph (NW)    
Max Wind Speed 10 mph    
Max Gust Speed 17 mph    
Visibility 10 miles    
Events      
Averages and records for this station are not official NWS values.
T = Trace of Precipitation, MM = Missing Value Source: NWS Daily Summary

Daily Weather History Graph

Daily Weather History Graph

Search for Another Location

Airport:

Trip Planner

Search our weather history database for the weather conditions in past years. The results will help you decide how hot, cold, wet, or windy it might be!

Date:

Astronomy

Jan. 14, 2013 Rise Set
Actual Time 8:01 AM EST 5:32 PM EST
Civil Twilight 7:31 AM EST 6:03 PM EST
Nautical Twilight 6:57 AM EST 6:37 PM EST
Astronomical Twilight 6:23 AM EST 7:10 PM EST
Moon 9:32 AM EST (1/14) 9:19 PM EST (1/14)
Length of Visible Light 10h 31m
Length of Day
9h 30m
Waxing Crescent, 11% of the Moon is Illuminated
Jan 14
Waxing Crescent
Jan 18
First Quarter
Jan 26
Full
Feb 3
Last Quarter
Feb 10
New

Hourly Weather History & Observations

Time (EST) Temp. Windchill Dew Point Humidity Pressure Visibility Wind Dir Wind Speed Gust Speed Precip Events Conditions
12:09 AM 30.2 °F 23.4 °F 26.6 °F 86% 30.11 in 10.0 mi Variable 6.9 mph - N/A   Overcast
12:53 AM 30.0 °F 25.2 °F 24.1 °F 79% 30.15 in 9.0 mi West 4.6 mph - N/A   Overcast
1:53 AM 27.0 °F 18.7 °F 21.0 °F 78% 30.19 in 10.0 mi WNW 8.1 mph 16.1 mph N/A   Overcast
2:53 AM 26.1 °F 18.4 °F 19.9 °F 78% 30.24 in 10.0 mi West 6.9 mph - N/A   Overcast
3:40 AM 24.8 °F 17.9 °F 19.4 °F 80% 30.24 in 10.0 mi Variable 5.8 mph - N/A   Overcast
3:53 AM 24.1 °F 19.7 °F 19.0 °F 81% 30.27 in 10.0 mi West 3.5 mph - N/A   Overcast
4:53 AM 24.1 °F 17.0 °F 17.1 °F 75% 30.29 in 10.0 mi WNW 5.8 mph - N/A   Overcast
5:53 AM 23.0 °F 13.9 °F 17.1 °F 78% 30.31 in 10.0 mi West 8.1 mph - N/A   Overcast
6:53 AM 23.0 °F 12.4 °F 18.0 °F 81% 30.33 in 10.0 mi NW 10.4 mph 17.3 mph N/A   Overcast
7:53 AM 23.0 °F 15.8 °F 17.1 °F 78% 30.38 in 10.0 mi Variable 5.8 mph - N/A   Overcast
8:32 AM 23.0 °F 15.8 °F 17.6 °F 80% 30.36 in 10.0 mi NW 5.8 mph - N/A   Overcast
8:53 AM 23.0 °F 15.8 °F 18.0 °F 81% 30.41 in 10.0 mi WNW 5.8 mph - N/A   Overcast
9:53 AM 23.0 °F 17.0 °F 17.1 °F 78% 30.43 in 10.0 mi Variable 4.6 mph - N/A   Overcast
10:53 AM 24.1 °F 13.7 °F 17.1 °F 75% 30.43 in 10.0 mi North 10.4 mph - N/A   Overcast
11:53 AM 25.0 °F 19.3 °F 17.1 °F 72% 30.40 in 10.0 mi NNW 4.6 mph - N/A   Overcast
12:53 PM 25.0 °F 17.1 °F 17.1 °F 72% 30.39 in 10.0 mi NNW 6.9 mph - N/A   Overcast
1:53 PM 25.0 °F - 15.1 °F 66% 30.41 in 10.0 mi Calm Calm - N/A   Overcast
2:53 PM 25.0 °F 20.7 °F 15.1 °F 66% 30.42 in 10.0 mi WNW 3.5 mph - N/A   Overcast
3:53 PM 25.0 °F 20.7 °F 15.1 °F 66% 30.47 in 10.0 mi Variable 3.5 mph - N/A   Overcast
5:53 PM 25.0 °F - 16.0 °F 69% 30.46 in 10.0 mi Calm Calm - N/A   Overcast
6:53 PM 25.0 °F 19.3 °F 17.1 °F 72% 30.46 in 10.0 mi WNW 4.6 mph - N/A   Overcast
7:16 PM 24.8 °F 17.9 °F 17.6 °F 74% 30.41 in 10.0 mi NW 5.8 mph - N/A   Mostly Cloudy
7:53 PM 25.0 °F 18.1 °F 17.1 °F 72% 30.43 in 10.0 mi NNW 5.8 mph - N/A   Mostly Cloudy
8:53 PM 23.0 °F - 16.0 °F 74% 30.43 in 10.0 mi Calm Calm - N/A   Clear
9:53 PM 21.0 °F - 16.0 °F 81% 30.43 in 10.0 mi Calm Calm - N/A   Clear
10:53 PM 21.0 °F - 16.0 °F 81% 30.43 in 10.0 mi Calm Calm - N/A   Clear
11:53 PM 19.9 °F - 16.0 °F 85% 30.43 in 10.0 mi Calm Calm - N/A   Clear